Menu       Home   X °F

Select another period ( hide this area )

Units Period Custom range Directly to
Metric English Both
Daily Weekly Monthly Yearly
use both date-selectors for a custom range
previous Day
With this date
Daily Summary for Saturday 18 May 2024
Time Temp. ( °F ) Dew pt. ( °F ) Wind ( mph ) From Gust ( mph ) Pressure ( in ) Humid.( % ) Rainrate ( in )
High64.4 64.0 1.0 SSE ( 16/16 ) 1.0 29.86 99 0.05
Average63.7 63.3 0.2 Calm #86/102 0.3 29.80 99 0.10
Low63.1 62.8 -   0.0 29.81 99 -
Daily Tabular details for Saturday 18 May 2024
Time Temp. ( °F ) Dew pt. ( °F ) Wind ( mph ) From Gust ( mph ) Pressure ( in ) Humid.( % ) Rainrate ( in )
00:04 63.9 63.5   Calm   29.82 99 -
00:09 63.9 63.5 1.0 SSE 1.0 29.82 99 -
00:14 63.9 63.5   Calm 1.0 29.82 99 -
00:19 63.9 63.5   Calm   29.83 99 -
00:24 63.9 63.5   Calm   29.82 99 -
00:29 63.7 63.3   Calm   29.82 99 -
00:34 63.7 63.3   Calm   29.82 99 -
00:39 63.7 63.3   Calm   29.82 99 -
00:44 63.7 63.3   Calm   29.82 99 -
00:49 63.7 63.3   Calm   29.82 99 -
00:54 63.7 63.3   Calm   29.82 99 -
00:59 63.7 63.3   Calm   29.81 99 -
01:04 63.7 63.3   Calm   29.82 99 -
01:09 63.5 63.1   Calm   29.82 99 -
01:14 63.5 63.1   Calm 1.0 29.81 99 -
01:19 63.5 63.1   Calm 1.0 29.82 99 -
01:24 63.5 63.1 1.0 SSE 1.0 29.81 99 -
01:29 63.5 63.1 1.0 SSE 1.0 29.81 99 -
01:34 63.3 63.0   Calm   29.82 99 -
01:39 63.3 63.0   Calm   29.81 99 -
01:44 63.3 63.0   Calm 1.0 29.81 99 -
01:49 63.1 62.8 1.0 SSE 1.0 29.81 99 -
01:54 63.3 63.0 1.0 SSE 1.0 29.81 99 -
01:59 63.3 63.0 1.0 SSE 1.0 29.82 99 -
02:04 63.3 63.0 1.0 SSE 1.0 29.82 99 -
02:09 63.3 63.0 1.0 SSE 1.0 29.83 99 -
02:14 63.3 63.0 1.0 SSE 1.0 29.82 99 -
02:19 63.5 63.1 1.0 SSE 1.0 29.82 99 -
02:24 63.3 63.0 1.0 SSE 1.0 29.83 99 -
02:29 63.5 63.1 1.0 SSE 1.0 29.83 99 -
02:34 63.5 63.1 1.0 SSE 1.0 29.83 99 -
02:39 63.5 63.1   Calm 1.0 29.83 99 -
02:44 63.5 63.1   Calm 1.0 29.83 99 -
02:49 63.7 63.3   Calm 1.0 29.83 99 -
02:54 63.7 63.3 1.0 SSE 1.0 29.83 99 -
02:59 63.7 63.3   Calm   29.83 99 -
03:04 63.7 63.3   Calm   29.82 99 -
03:09 63.7 63.3   Calm   29.82 99 -
03:14 63.7 63.3   Calm   29.82 99 -
03:19 63.7 63.3   Calm   29.83 99 -
03:24 63.7 63.3   Calm   29.82 99 -
03:29 63.5 63.1   Calm   29.82 99 -
03:34 63.5 63.1   Calm   29.83 99 -
03:39 63.5 63.1   Calm   29.83 99 -
03:44 63.7 63.3   Calm   29.83 99 -
03:49 63.7 63.3   Calm   29.83 99 -
03:54 63.7 63.3   Calm   29.84 99 -
03:59 63.7 63.3 1.0 SSE 1.0 29.83 99 -
04:04 63.7 63.3   Calm 1.0 29.83 99 -
04:09 63.7 63.3   Calm   29.83 99 -
04:14 63.7 63.3   Calm   29.83 99 -
04:19 63.7 63.3   Calm   29.83 99 -
04:24 63.5 63.1   Calm   29.82 99 -
04:29 63.5 63.1   Calm   29.82 99 -
04:34 63.5 63.1   Calm   29.82 99 -
04:39 63.5 63.1   Calm   29.82 99 -
04:44 63.5 63.1   Calm   29.82 99 -
04:49 63.5 63.1   Calm   29.82 99 -
04:54 63.7 63.3   Calm   29.83 99 -
04:59 63.7 63.3   Calm   29.83 99 -
05:04 63.7 63.3   Calm   29.83 99 -
05:09 63.7 63.3   Calm   29.84 99 -
05:14 63.5 63.1   Calm   29.82 99 -
05:19 63.5 63.1   Calm   29.83 99 -
05:24 63.7 63.3   Calm   29.83 99 0.05
05:29 63.7 63.3   Calm   29.83 99 0.05
05:34 63.7 63.3   Calm   29.83 99 0.05
05:39 63.7 63.3   Calm   29.82 99 -
05:44 63.7 63.3   Calm   29.83 99 -
05:49 63.7 63.3   Calm   29.83 99 -
05:54 63.7 63.3   Calm   29.84 99 -
05:59 63.7 63.3   Calm   29.83 99 -
06:04 63.7 63.3   Calm   29.84 99 -
06:09 63.7 63.3   Calm   29.84 99 -
06:14 63.7 63.3   Calm   29.84 99 -
06:19 63.7 63.3   Calm   29.84 99 -
06:24 63.7 63.3   Calm   29.84 99 -
06:29 63.5 63.1   Calm   29.84 99 -
06:34 63.5 63.1   Calm 1.0 29.84 99 -
06:39 63.5 63.1   Calm 1.0 29.85 99 -
06:44 63.5 63.1   Calm   29.85 99 -
06:49 63.5 63.1   Calm   29.84 99 -
06:54 63.5 63.1   Calm   29.84 99 -
06:59 63.7 63.3   Calm   29.85 99 -
07:04 63.7 63.3   Calm   29.84 99 -
07:09 63.7 63.3 1.0 SSE 1.0 29.84 99 -
07:14 63.9 63.5   Calm 1.0 29.86 99 -
07:19 63.7 63.3   Calm   29.86 99 -
07:24 63.9 63.5   Calm   29.85 99 -
07:29 63.9 63.5   Calm   29.86 99 -
07:34 63.9 63.5   Calm   29.85 99 -
07:39 63.9 63.5   Calm   29.86 99 -
07:44 63.9 63.5   Calm   29.85 99 -
07:49 63.9 63.5   Calm   29.85 99 -
07:54 64.0 63.7   Calm   29.85 99 -
07:59 64.0 63.7   Calm   29.85 99 -
08:04 64.2 63.9   Calm   29.85 99 -
08:09 64.2 63.9   Calm   29.86 99 -
08:14 64.2 63.9   Calm   29.86 99 0.05
08:19 64.2 63.9   Calm   29.85 99 0.05
08:24 64.4 64.0   Calm   29.85 99 0.05
08:29 64.4 64.0   Calm   29.85 99 -

Download your copy of this data-set  from WeatherUnderground

Our weather-data as stored at Weather Underground

Original Weather Page

My Ham Radio Page